AJISAI (EGS) (16908 NORAD) Tracking and Keplerian Element Data

This shows tracking and keplerian element data for the satellite.

Feedback or suggestion? Click here.




ElementValue
Catalog16908
NameAJISAI (EGS)
Epoch Orbit31112
Epoch Day269.87226649
Epoch Year2022
RAAN7.1892
Inclination50.0122
Eccentricity0.0011194
Argument of Perigee320.719
Mean Anonmoly204.5602
Mean Motion12.44497101
Decay Rate-9.6E-07
L11 16908U 86061A 22269.87226649 -.00000096 00000+0 72154-5 0 9999
L22 16908 50.0122 7.1892 0011194 320.7190 204.5602 12.44497101311121

Live tracking and technical data element details for AJISAI (EGS) (NORAD 16908). AJISAI (EGS) can be tracked NOW for your location showing map with azimuth and elevation plus other details from your city location.

Track the satellite on the map from your city or location and see movement details for azimuth, elevation, latitude, longitude, range, height, and movement on the map or in text.







IsCatalogInMostPopularTable: catalog: 16908, numindb: 729
Update: records affected: 1



GetName: 16908 AJISAI (EGS)

Hit Count: updated at: Fri, 30 Sep 2022 04:14:48 GMT